Погода Тегюльтя-Терде

Погода Тегюльтя-Терде : погода сейчас, прогноз погоды и архив. Всё, что Вы хотите узнать о погоде Тегюльтя-Терде!

Поиск расширенной информации на нашем сайте:

Другие новости

Новости СМИ2

Главная страница сайта

Новости сайта

03.07.2017

Напоминаем, что на нашем специализированном сайте Метеоцентр.Азия вы можете получить высокодетализированные автоматические прогнозы погоды по пунктам России, СНГ и мира в авиационном формате (включающие направление и скорость ветра, видимость, явления погоды, количество и форму облачности, нижнюю и верхнюю границу облачности).

Рекомендуем: предлагаются помещения сдам офис Бизнес центр Варшавка Sky у метро Чертановская

Погода Тегюльтя-Терде - сегодня

Время (UTC), дата Ветер
(°,м/с) 
Видим.   Явления Облачность Т
(°С)
Тd
(°С)
f(%) Тe
(°С)
Pmin
(гПа)
dP
(гПа)
Po
(мм)
O2
(г/м3)
Тmin Tmax R s Состояние
почвы
09 20.05.18 250 (З) 20000 м    8/8 600 м кучево-дожд. 
[Cb cap]
+12.7 -5.7 27 +12  1015.7  746  288           
12 20.05.18 тихо ()   20000 м    4/4 600 м 
[Sc]
+9.7 -2.1 44 +10  1017.5  1.7  748  291    +13.3       
15 20.05.18 тихо ()   20000 м    ясно 
+0.5 -1.5 86 +1  1019.9  1.5  749  301           
18 20.05.18 тихо ()   20000 м    ясно 
-1 -2.5 90 -1  1020.8  0.8  749  303           
21 20.05.18 тихо ()   20000 м    10/0 верхняя 
[Ci fib]
-1.4 -3.6 85 -1  1022.2  1.4  750  304           
00 21.05.18 тихо ()   20000 м    8/0 верхняя 
[Ci fib]
+9.3 -1.6 46 +9  1020.8  -0.7  750  292  -1.5        влажная 
03 21.05.18 тихо ()   20000 м    10/0 верхняя 
[Ci fib]
+14.2 -7.9 21 +14  1017.8  -2.4  748  287           
06 21.05.18 140 (ЮВ) 20000 м    10/0 верхняя 
[Cs]
+15.9 -5.9 22 +17  1014.8  -2.9  746  285           
09 21.05.18 060 (СВ) 20000 м    10/0 верхняя 
[Cs]
+15.6 -3.7 26 +17  1012.5  -2.2  744  284           
12 21.05.18 060 (СВ) 20000 м    10/0 средняя 
[As trans]
+11.5 +1.3 49 +13  1011.1  -1.7  743  287    +15.9       
15 21.05.18 тихо ()   20000 м    10/0 верхняя 
[Cs]
+6.7 +1.2 68 +7  1010.2  -1.3  742  292           
18 21.05.18 тихо ()   20000 м    10/0 верхняя 
[Cc]
+7.4 -3 48 +7  1009.3  -0.9  741  291           
21 21.05.18 080 (В) 20000 м    10/0 верхняя 
[Cc]
+8.7 -3.3 43 +9  1006.5  -1.5  739  289           
00 22.05.18 040 (СВ) 20000 м    10/0 верхняя 
[Cs]
+13.5 -3.2 31 +14  1003.6  -2.5  738  283  +6.6        влажная 
09 22.05.18 050 (СВ) 4{10}  20000 м    10/0 средняя 
[As op]
+18.1 -3.7 22 +18  996.6  -1.2  733  277           
12 22.05.18 020 (С) 20000 м    10/0 средняя 
[As op]
+16.7 -1.1 30 +18  996.8  733  278    +18.5       
15 22.05.18 060 (СВ) 20000 м    6/0 средняя, верхняя 
[Ac trans|Ci fib]
+12.9 -3.1 33 +13  996.1  -0.9  732  282           
18 22.05.18 050 (СВ) 20000 м    10/0 средняя 
[As op]
+13.4 -3.4 31 +13  995.2  -1  731  281           
21 22.05.18 060 (СВ) 20000 м    10/0 средняя, верхняя 
[Ac trans|Ci fib]
+13.1 -1.2 37 +14  995.2  0.1  731  281           
00 23.05.18 050 (СВ) 20000 м    10/0 средняя, верхняя 
[Ac trans|Ci fib]
+16.8 +1.2 35 +17  994.9  -0.1  731  277  +12.8        влажная 
03 23.05.18 040 (СВ) 20000 м    4/0 средняя 
[Ac trans]
+21.3 +4.3 33 +21  994.2  -0.3  731  273           
06 23.05.18 080 (В) 20000 м    10/0 средняя, верхняя 
[Ac trans|Ci fib]
+22.4 +3.3 29 +22  993.8  -0.4  731  272           
09 23.05.18 050 (СВ) 20000 м    10/0 средняя, верхняя 
[Ac trans|Ci fib]
+24 +6.1 32 +24  993.5  -0.1  731  270           
12 23.05.18 060 (СВ) 20000 м    10/0 средняя, верхняя 
[Ac trans|Ci fib]
+20 +6 40 +20  994.6  0.8  731  274    +24.8       
15 23.05.18 тихо ()   20000 м    8/0 средняя 
[Ac trans]
+9.9 +5.8 76 +10  996.5  1.2  732  284           
Время (UTC), дата Ветер
(°,м/с) 
Видим.   Явления Облачность Т
(°С)
Тd
(°С)
f(%) Тe
(°С)
Pmin
(гПа)
dP
(гПа)
Po
(мм)
O2
(г/м3)
Тmin Tmax R s Состояние
почвы

Для получения пояснительной информации подведите курсор к названию столбца.

ПОГОДА Тегюльтя-Терде - архив

Всё, что Вы хотите узнать о погоде Тегюльтя-Терде - удобно и подробно!

Выберите нужную дату (начиная с 1 января 2015* года) и нажмите кнопку "Найти".
Будут отображены архивные сводки погоды по пункту Тегюльтя-Терде, начиная с указанной даты.


Отображать данные в формате CSV (для использования в таблицах Excel)


Внимание! Наш архив погоды предназначен исключительно для личного некоммерческого использования в познавательных целях. Если Вам необходимы официальные справки о состоянии погоды (для производственных, юридических, коммерческих и т.п. целей), обращайтесь в органы Росгидромета.

*Примечание: данная дата относится к архиву по метеостанциям СССР (Россия, СНГ, Балтия).
Архив по метеостанциям Зарубежной Европы и Азии (кроме Китая) хранится 10 дней, по другим регионам земного шара (Китай, Африка, Америка, Австралия, Океания) - 1 день.

Тегюльтя-Терде - район местоположения метеостанции


Название, широта, долгота, высота метеостанции:
Тегюльтя-Терде 60.2°ш. 130.2°д. 171 м над ур. моря [Российская Федерация]

Дополнительная информация

В oтличие oт бoльшинства пoгoдных сайтoв мы публикуем пoдрoбную метеoинфoрмацию в детальнoм прoфессиoнальнoм фoрмате.

Характеристики температуры и влажнoсти вoздуха измеряются на высoте 2 м в тени вдали oт зданий и деревьев.
Скoрoсть ветра измеряется на высoте 10 м (на урoвне рoста челoвека скoрoсть ветра ниже в 1.5-2 раза). Если метеoстанция нахoдится в гoрoде или в лесу, тo скoрoсть ветра занижена на 2-4 м/с пo сравнению с oткрытым местoм. Скoрoсть ветра над акватoриями крупных рек и oзёр, а также на вершинах хoлмoв на 2-5 м/с выше, чем в oбычных услoвиях.
Атмoсфернoе давление в разных тoчках местнoсти мoжет значительнo oтличаться oт давления на метеoстанции, в зависимoсти oт услoвий рельефа (при пoдъёме на 10 м давление пoнижается примернo на 1 мм рт.ст.).